User: anonymous   Login
Location: Mercogliano
(40.9167°N, 14.7333°E)
Time: 02:26:09
(UTC+00:00)
Language:

Nadezhda 4 Rocket - Orbit

View from above orbital plane
View from above orbital plane
View from above satellite
View from above satellite

Ground track
Ground track

The orbit data is extracted from the following two-line orbital elements,

1 23180U 94041B   20338.21936403  .00000064  00000-0  49072-4 0  9992
2 23180  82.9480  69.6750 0027600 277.6532 142.0430 13.77983697326866
Epoch (UTC): 03 December 2020 05:15:53
Eccentricity: 0.0027600
inclination: 82.9480°
perigee height: 951 km
apogee height: 991 km
right ascension of ascending node: 69.6750°
argument of perigee: 277.6532°
revolutions per day: 13.77983697
mean anomaly at epoch: 142.0430°
orbit number at epoch: 32686

The dashed part of the orbit path shows where the satellite is in the earth's shadow,  

DLR